TimeCST,TemperatureF,Dew PointF,Humidity,Sea Level PressureIn,VisibilityMPH,Wind Direction,Wind SpeedMPH,Gust SpeedMPH,PrecipitationIn,Events,Conditions,WindDirDegrees,DateUTC
12:35 AM,28.4,21.2,74,30.16,10.0,Calm,Calm,-,N/A,,Clear,0,2013-02-19 06:35:00
1:15 AM,28.4,23.0,80,30.17,10.0,North,3.5,-,N/A,,Clear,350,2013-02-19 07:15:00
1:35 AM,26.6,21.2,80,30.18,10.0,NW,3.5,-,N/A,,Clear,320,2013-02-19 07:35:00
1:55 AM,26.6,23.0,86,30.18,10.0,Calm,Calm,-,N/A,,Clear,0,2013-02-19 07:55:00
2:15 AM,30.2,24.8,80,30.19,10.0,Calm,Calm,-,N/A,,Clear,0,2013-02-19 08:15:00
2:35 AM,26.6,21.2,80,30.19,10.0,Calm,Calm,-,N/A,,Clear,0,2013-02-19 08:35:00
2:55 AM,24.8,21.2,86,30.19,10.0,Calm,Calm,-,N/A,,Clear,0,2013-02-19 08:55:00
3:15 AM,26.6,21.2,80,30.19,10.0,Calm,Calm,-,N/A,,Clear,0,2013-02-19 09:15:00
3:35 AM,26.6,21.2,80,30.19,10.0,North,4.6,-,N/A,,Clear,10,2013-02-19 09:35:00
3:55 AM,26.6,21.2,80,30.18,10.0,North,4.6,-,N/A,,Clear,360,2013-02-19 09:55:00
4:15 AM,26.6,23.0,86,30.18,10.0,North,3.5,-,N/A,,Clear,350,2013-02-19 10:15:00
4:35 AM,24.8,21.2,86,30.19,10.0,NNW,4.6,-,N/A,,Clear,340,2013-02-19 10:35:00
4:55 AM,24.8,21.2,86,30.20,10.0,Calm,Calm,-,N/A,,Clear,0,2013-02-19 10:55:00
6:15 AM,24.8,21.2,86,30.23,10.0,NNW,5.8,-,N/A,,Clear,330,2013-02-19 12:15:00
6:50 AM,24.8,21.2,86,30.24,10.0,Calm,Calm,-,N/A,,Partly Cloudy,0,2013-02-19 12:50:00
9:50 AM,42.8,24.8,49,30.33,10.0,NW,5.8,-,N/A,,Scattered Clouds,320,2013-02-19 15:50:00
10:50 AM,46.4,19.4,34,30.32,10.0,North,5.8,-,N/A,,Partly Cloudy,350,2013-02-19 16:50:00
12:50 PM,50.0,23.0,35,30.30,10.0,ENE,6.9,-,N/A,,Scattered Clouds,60,2013-02-19 18:50:00
2:55 PM,51.8,23.0,33,30.24,10.0,ENE,5.8,-,N/A,,Mostly Cloudy,70,2013-02-19 20:55:00
3:50 PM,51.8,23.0,33,30.22,10.0,ESE,5.8,-,N/A,,Scattered Clouds,110,2013-02-19 21:50:00
6:50 PM,42.8,24.8,49,30.18,10.0,East,6.9,-,N/A,,Mostly Cloudy,90,2013-02-20 00:50:00
7:50 PM,41.0,24.8,53,30.18,10.0,East,11.5,-,N/A,,Mostly Cloudy,100,2013-02-20 01:50:00
8:15 PM,41.0,26.6,57,30.19,10.0,East,10.4,-,N/A,,Clear,90,2013-02-20 02:15:00
8:35 PM,39.2,26.6,61,30.19,10.0,East,10.4,-,N/A,,Clear,100,2013-02-20 02:35:00
8:55 PM,39.2,26.6,61,30.19,10.0,East,11.5,-,N/A,,Clear,100,2013-02-20 02:55:00
9:15 PM,39.2,26.6,61,30.19,10.0,East,10.4,-,N/A,,Clear,100,2013-02-20 03:15:00
9:35 PM,37.4,26.6,65,30.19,10.0,East,10.4,-,N/A,,Clear,100,2013-02-20 03:35:00
9:55 PM,37.4,26.6,65,30.21,10.0,ESE,9.2,-,N/A,,Clear,110,2013-02-20 03:55:00
10:15 PM,37.4,26.6,65,30.21,10.0,ESE,10.4,-,N/A,,Clear,110,2013-02-20 04:15:00
10:35 PM,37.4,26.6,65,30.21,10.0,East,9.2,-,N/A,,Clear,100,2013-02-20 04:35:00
10:55 PM,37.4,26.6,65,30.20,10.0,East,10.4,-,N/A,,Clear,100,2013-02-20 04:55:00
11:15 PM,37.4,26.6,65,30.19,10.0,East,11.5,-,N/A,,Clear,100,2013-02-20 05:15:00
11:35 PM,37.4,26.6,65,30.19,10.0,East,10.4,-,N/A,,Clear,100,2013-02-20 05:35:00
11:55 PM,37.4,28.4,70,30.19,10.0,ESE,10.4,-,N/A,,Scattered Clouds,110,2013-02-20 05:55:00